DW5375 Weather Reports


Display with metric or nautical units.
time (UTC)temp
F
wind
direction
speed
MPH
gust
MPH
rain 1hr
in
rain 24hr
in
rain mn
in
humidity
%
barometer
mb
20260906053054 0 184 0.0 0.0 0.00 0.00 0.00 1017.4
20260906051546 0 184 0.0 1.0 0.00 0.00 0.00 1017.5
20260906050058 0 184 0.0 3.0 0.00 0.00 0.00 1017.6
20260906044537 0 184 1.0 3.0 0.00 0.00 0.00 1017.6
20260906043034 0 184 0.0 2.0 0.00 0.00 0.00 1017.6
20260906041529 0 184 0.0 0.0 0.00 0.00 0.00 1017.5
20260906040029 0 184 0.0 1.0 0.00 0.00 0.00 1017.4
20260906034520 0 184 0.0 2.0 0.00 0.00 0.00 1017.2
20260906033015 0 184 0.0 1.0 0.00 0.00 0.00 1017.3
20260906031511 0 184 0.0 0.0 0.00 0.00 0.00 1017.3
20260906030006 0 184 0.0 1.0 0.00 0.00 0.00 1017.4
20260906024502 0 184 0.0 2.0 0.00 0.00 0.00 1017.5
20260906023059 0 183 1.0 3.0 0.00 0.00 0.00 1017.5
20260906021555 0 183 0.0 0.0 0.00 0.00 0.00 1017.3
20260906020054 0 183 0.0 2.0 0.00 0.00 0.00 1017.1
20260906014554 0 183 0.0 5.0 0.00 0.00 0.00 1017.0
20260906013039 0 31 1.0 4.0 0.00 0.00 0.00 1016.9
20260906011535 0 17 2.0 3.0 0.00 0.00 0.00 1016.7
20260906010031 0 18 3.0 4.0 0.00 0.00 0.00 1016.8
20260906004526 0 24 2.0 3.0 0.00 0.00 0.00 1016.8
20260906003022 0 13 2.0 4.0 0.00 0.00 0.00 1016.7
20260906001517 0 16 0.0 4.0 0.00 0.00 0.00 1016.8
20260906000013 0 93 1.0 3.0 0.00 0.00 0.00 1016.9
20260905234508 0 190 1.0 2.0 0.00 0.00 0.00 1016.8
20260905233012 0 182 2.0 4.0 0.00 0.00 0.00 1016.8
20260905231601 0 215 1.0 3.0 0.00 0.00 0.00 1016.7
20260905230123 0 221 2.0 4.0 0.00 0.00 0.00 1016.8
20260905224551 0 217 5.0 6.0 0.00 0.00 0.00 1016.9
20260905223047 0 217 4.0 7.0 0.00 0.00 0.00 1017.0
20260905221542 0 222 5.0 7.0 0.00 0.00 0.00 1017.1
20260905220038 0 201 7.0 9.0 0.00 0.00 0.00 1017.1
20260905214536 0 208 2.0 5.0 0.00 0.00 0.00 1017.1
20260905213029 0 200 1.0 3.0 0.00 0.00 0.00 1017.1
20260905211531 0 193 5.0 7.0 0.00 0.00 0.00 1017.4
20260905210021 0 205 1.0 4.0 0.00 0.00 0.00 1017.5
20260905204516 0 199 2.0 4.0 0.00 0.00 0.00 1017.7
20260905203016 0 196 6.0 8.0 0.00 0.00 0.00 1017.7
20260905201508 0 196 4.0 7.0 0.00 0.00 0.00 1017.8
20260905200004 0 191 6.0 7.0 0.00 0.00 0.00 1017.9
20260905194559 0 201 5.0 7.0 0.00 0.00 0.00 1017.9
20260905193108 0 62 1.0 4.0 0.00 0.00 0.00 1018.0
20260905191550 0 201 2.0 5.0 0.00 0.00 0.00 1018.1
20260905190046 0 188 2.0 4.0 0.00 0.00 0.00 1018.2
20260905184542 0 196 2.0 4.0 0.00 0.00 0.00 1018.3
20260905183041 0 214 2.0 5.0 0.00 0.00 0.00 1018.4
20260905181533 0 204 4.0 7.0 0.00 0.00 0.00 1018.6
20260905180030 0 192 5.0 7.0 0.00 0.00 0.00 1018.5
20260905174524 0 188 4.0 6.0 0.00 0.00 0.00 1018.4
20260905173020 0 186 3.0 5.0 0.00 0.00 0.00 1018.4
20260905171527 0 181 2.0 4.0 0.00 0.00 0.00 1018.5
20260905170012 0 178 2.0 6.0 0.00 0.00 0.00 1018.6
20260905164516 0 181 2.0 3.0 0.00 0.01 0.00 1018.4
20260905163002 0 181 3.0 6.0 0.00 0.01 0.00 1018.4
20260905161558 0 27 1.0 3.0 0.00 0.01 0.00 1018.4
20260905160054 0 175 1.0 3.0 0.00 0.01 0.00 1018.1
20260905154601 0 171 2.0 4.0 0.00 0.01 0.00 1018.0
20260905153047 0 22 1.0 2.0 0.00 0.01 0.00 1018.1
20260905151541 0 21 2.0 3.0 0.00 0.01 0.00 1018.1
20260905150038 0 9 2.0 4.0 0.00 0.01 0.00 1018.1
20260905144531 0 9 2.0 3.0 0.00 0.01 0.00 1018.2
20260905143027 0 5 1.0 2.0 0.00 0.01 0.00 1018.1
20260905141522 0 5 0.0 1.0 0.00 0.01 0.00 1017.9
20260905140018 0 5 1.0 2.0 0.00 0.01 0.00 1017.9
20260905134513 0 5 0.0 0.0 0.00 0.01 0.00 1017.8
20260905133009 0 5 0.0 0.0 0.00 0.01 0.00 1017.7
20260905131509 0 5 0.0 0.0 0.00 0.01 0.00 1017.7
20260905130101 0 5 0.0 0.0 0.00 0.01 0.00 1017.6
20260905124600 0 5 1.0 2.0 0.00 0.01 0.00 1017.6
20260905123052 0 5 0.0 0.0 0.00 0.01 0.00 1017.5
20260905121547 0 5 0.0 2.0 0.00 0.01 0.00 1017.4
20260905120042 0 5 1.0 3.0 0.00 0.01 0.00 1017.4
20260905114537 0 5 0.0 1.0 0.00 0.01 0.00 1017.4
20260905113033 0 5 0.0 1.0 0.00 0.01 0.00 1017.2
20260905111531 0 5 0.0 2.0 0.00 0.01 0.00 1017.3
20260905110025 0 5 0.0 1.0 0.00 0.01 0.00 1017.2
20260905104520 0 5 0.0 0.0 0.00 0.01 0.00 1017.3
20260905103020 0 5 0.0 0.0 0.00 0.01 0.00 1017.2
20260905101512 0 5 0.0 0.0 0.00 0.01 0.00 1017.1
20260905100008 0 5 1.0 2.0 0.00 0.01 0.00 1017.0
20260905094504 0 5 1.0 2.0 0.00 0.01 0.00 1017.0
20260905093059 0 5 1.0 3.0 0.00 0.01 0.00 1017.1
20260905091601 0 5 0.0 1.0 0.00 0.01 0.00 1017.1
20260905090051 0 5 1.0 3.0 0.00 0.01 0.00 1017.0
20260905084545 0 5 1.0 2.0 0.00 0.01 0.00 1017.1
20260905083041 0 5 0.0 0.0 0.00 0.01 0.00 1016.9
20260905081537 0 5 0.0 0.0 0.00 0.01 0.00 1016.9
20260905080035 0 5 0.0 0.0 0.00 0.01 0.00 1016.8
20260905074528 0 5 0.0 1.0 0.00 0.01 0.00 1016.7
20260905073023 0 5 0.0 2.0 0.00 0.01 0.00 1016.8
20260905071520 0 5 0.0 0.0 0.00 0.01 0.00 1016.6
20260905070015 0 5 0.0 0.0 0.00 0.01 0.00 1016.5
20260905064510 0 5 0.0 2.0 0.00 0.01 0.01 1016.5
20260905063006 0 5 1.0 2.0 0.00 0.01 0.01 1016.3
20260905061502 0 5 1.0 2.0 0.00 0.01 0.01 1016.2
20260905060100 0 5 1.0 3.0 0.00 0.01 0.01 1016.2
20260905054555 0 360 1.0 3.0 0.00 0.01 0.01 1016.2